Time,TemperatureF,DewpointF,PressureIn,WindDirection,WindDirectionDegrees,WindSpeedMPH,WindSpeedGustMPH,Humidity,HourlyPrecipIn,Conditions,Clouds,dailyrainin,SoftwareType,DateUTC
2013-09-30 00:14:00,56.0,54.0,29.95,SE,140,0.0,-999.0,92,-99.99,,,-99.99,,2013-09-30 04:14:00,
2013-09-30 00:25:00,56.0,54.0,29.95,SE,140,0.0,-999.0,93,-99.99,,,-99.99,,2013-09-30 04:25:00,
2013-09-30 00:44:00,55.0,53.0,29.94,SE,140,0.0,-999.0,93,-99.99,,,-99.99,,2013-09-30 04:44:00,
2013-09-30 00:53:00,54.0,52.0,29.95,SE,140,0.0,-999.0,94,-99.99,,,-99.99,,2013-09-30 04:53:00,
2013-09-30 01:23:00,53.0,52.0,29.95,SE,140,0.0,-999.0,95,-99.99,,,-99.99,,2013-09-30 05:23:00,
2013-09-30 01:43:00,53.0,52.0,29.95,SE,140,0.0,-999.0,95,-99.99,,,-99.99,,2013-09-30 05:43:00,
2013-09-30 01:52:00,52.0,51.0,29.95,SE,140,0.0,-999.0,95,-99.99,,,-99.99,,2013-09-30 05:52:00,
2013-09-30 02:12:00,52.0,51.0,29.95,SE,140,0.0,-999.0,95,-99.99,,,-99.99,,2013-09-30 06:12:00,
2013-09-30 02:22:00,52.0,51.0,29.95,SE,140,0.0,-999.0,96,-99.99,,,-99.99,,2013-09-30 06:22:00,
2013-09-30 02:52:00,51.0,50.0,29.95,SE,140,0.0,-999.0,96,-99.99,,,-99.99,,2013-09-30 06:52:00,
2013-09-30 03:12:00,51.0,50.0,29.95,SE,140,0.0,-999.0,96,-99.99,,,-99.99,,2013-09-30 07:12:00,
2013-09-30 03:22:00,51.0,50.0,29.95,SE,140,0.0,-999.0,96,-99.99,,,-99.99,,2013-09-30 07:22:00,
2013-09-30 03:52:00,49.0,48.0,29.94,SE,140,0.0,-999.0,96,-99.99,,,-99.99,,2013-09-30 07:52:00,
2013-09-30 04:12:00,49.0,48.0,29.94,SE,140,0.0,-999.0,97,-99.99,,,-99.99,,2013-09-30 08:12:00,
2013-09-30 04:22:00,50.0,49.0,29.94,SE,140,0.0,-999.0,97,-99.99,,,-99.99,,2013-09-30 08:22:00,
2013-09-30 04:42:00,49.0,48.0,29.94,SE,140,0.0,-999.0,97,-99.99,,,-99.99,,2013-09-30 08:42:00,
2013-09-30 04:52:00,49.0,48.0,29.94,SE,140,0.0,-999.0,97,-99.99,,,-99.99,,2013-09-30 08:52:00,
2013-09-30 05:12:00,49.0,48.0,29.94,SE,140,0.0,-999.0,97,-99.99,,,-99.99,,2013-09-30 09:12:00,
2013-09-30 05:22:00,49.0,48.0,29.95,SE,140,0.0,-999.0,97,-99.99,,,-99.99,,2013-09-30 09:22:00,
2013-09-30 05:53:00,50.0,49.0,29.95,SE,140,0.0,-999.0,97,-99.99,,,-99.99,,2013-09-30 09:53:00,
2013-09-30 06:13:00,49.0,48.0,29.94,SE,140,0.0,-999.0,97,-99.99,,,-99.99,,2013-09-30 10:13:00,
2013-09-30 06:23:00,49.0,48.0,29.94,SE,140,0.0,-999.0,97,-99.99,,,-99.99,,2013-09-30 10:23:00,
2013-09-30 06:53:00,47.0,46.0,29.95,SE,140,0.0,-999.0,97,-99.99,,,-99.99,,2013-09-30 10:53:00,
2013-09-30 07:12:00,48.0,47.0,29.95,SE,140,0.0,-999.0,98,-99.99,,,-99.99,,2013-09-30 11:12:00,
2013-09-30 07:22:00,48.0,47.0,29.96,SE,140,0.0,-999.0,97,-99.99,,,-99.99,,2013-09-30 11:22:00,
2013-09-30 07:52:00,48.0,47.0,29.96,SE,140,0.0,-999.0,97,-99.99,,,-99.99,,2013-09-30 11:52:00,
2013-09-30 08:12:00,48.0,47.0,29.97,SE,140,0.0,-999.0,97,-99.99,,,-99.99,,2013-09-30 12:12:00,
2013-09-30 08:22:00,47.0,46.0,29.97,SE,140,0.0,-999.0,97,-99.99,,,-99.99,,2013-09-30 12:22:00,
2013-09-30 08:42:00,48.0,47.0,29.98,SE,140,0.0,-999.0,98,-99.99,,,-99.99,,2013-09-30 12:42:00,
2013-09-30 08:52:00,49.0,48.0,29.98,SE,140,0.0,-999.0,98,-99.99,,,-99.99,,2013-09-30 12:52:00,
2013-09-30 09:12:00,51.0,50.0,29.97,SE,140,0.0,-999.0,98,-99.99,,,-99.99,,2013-09-30 13:12:00,
2013-09-30 09:22:00,52.0,51.0,29.97,SE,140,0.0,-999.0,98,-99.99,,,-99.99,,2013-09-30 13:22:00,
2013-09-30 09:42:00,53.0,52.0,29.97,SE,140,0.0,-999.0,98,-99.99,,,-99.99,,2013-09-30 13:42:00,
2013-09-30 09:52:00,54.0,53.0,29.97,SE,140,0.0,-999.0,98,-99.99,,,-99.99,,2013-09-30 13:52:00,
2013-09-30 10:11:00,54.0,53.0,29.96,SE,140,0.0,-999.0,98,-99.99,,,-99.99,,2013-09-30 14:11:00,
2013-09-30 10:22:00,55.0,54.0,29.96,SE,140,0.0,-999.0,98,-99.99,,,-99.99,,2013-09-30 14:22:00,
2013-09-30 10:42:00,55.0,54.0,29.96,SE,140,1.0,-999.0,98,-99.99,,,-99.99,,2013-09-30 14:42:00,
2013-09-30 10:52:00,55.0,54.0,29.96,SE,140,1.0,-999.0,98,-99.99,,,-99.99,,2013-09-30 14:52:00,
2013-09-30 11:12:00,56.0,55.0,29.95,SE,140,1.0,-999.0,98,-99.99,,,-99.99,,2013-09-30 15:12:00,
2013-09-30 11:23:00,56.0,55.0,29.95,SE,140,1.0,-999.0,98,-99.99,,,-99.99,,2013-09-30 15:23:00,
2013-09-30 11:45:00,58.0,57.0,29.94,SSE,153,1.0,-999.0,98,-99.99,,,-99.99,,2013-09-30 15:45:00,
2013-09-30 11:54:00,60.0,57.0,29.94,ENE,76,2.0,-999.0,91,-99.99,,,-99.99,,2013-09-30 15:54:00,
2013-09-30 12:14:00,60.0,56.0,29.94,East,92,2.0,-999.0,86,-99.99,,,-99.99,,2013-09-30 16:14:00,
2013-09-30 12:24:00,61.0,57.0,29.93,WNW,282,1.0,-999.0,86,-99.99,,,-99.99,,2013-09-30 16:24:00,
2013-09-30 12:44:00,61.0,56.0,29.93,ENE,74,2.0,-999.0,85,-99.99,,,-99.99,,2013-09-30 16:44:00,
2013-09-30 12:53:00,61.0,56.0,29.93,ENE,69,2.0,-999.0,85,-99.99,,,-99.99,,2013-09-30 16:53:00,
2013-09-30 13:13:00,60.0,56.0,29.93,NE,52,2.0,-999.0,87,-99.99,,,-99.99,,2013-09-30 17:13:00,
2013-09-30 13:23:00,61.0,56.0,29.93,NE,48,3.0,-999.0,85,-99.99,,,-99.99,,2013-09-30 17:23:00,
2013-09-30 13:43:00,61.0,57.0,29.93,East,101,3.0,-999.0,86,-99.99,,,-99.99,,2013-09-30 17:43:00,
2013-09-30 13:53:00,62.0,57.0,29.92,ENE,57,3.0,-999.0,84,-99.99,,,-99.99,,2013-09-30 17:53:00,
2013-09-30 14:12:00,63.0,55.0,29.92,WSW,252,2.0,-999.0,75,-99.99,,,-99.99,,2013-09-30 18:12:00,
2013-09-30 14:22:00,65.0,54.0,29.92,South,186,3.0,-999.0,68,-99.99,,,-99.99,,2013-09-30 18:22:00,
2013-09-30 14:53:00,65.0,53.0,29.91,WSW,241,3.0,-999.0,66,-99.99,,,-99.99,,2013-09-30 18:53:00,
2013-09-30 15:12:00,65.0,52.0,29.90,WNW,290,5.0,-999.0,62,-99.99,,,-99.99,,2013-09-30 19:12:00,
2013-09-30 15:22:00,66.0,52.0,29.88,South,186,4.0,-999.0,60,-99.99,,,-99.99,,2013-09-30 19:22:00,
2013-09-30 15:42:00,67.0,53.0,29.88,South,178,2.0,-999.0,60,-99.99,,,-99.99,,2013-09-30 19:42:00,
2013-09-30 15:53:00,68.0,52.0,29.88,WSW,247,5.0,-999.0,57,-99.99,,,-99.99,,2013-09-30 19:53:00,
2013-09-30 16:13:00,67.0,52.0,29.88,WSW,242,2.0,-999.0,59,-99.99,,,-99.99,,2013-09-30 20:13:00,
2013-09-30 16:23:00,68.0,53.0,29.88,SW,214,4.0,-999.0,58,-99.99,,,-99.99,,2013-09-30 20:23:00,
2013-09-30 16:53:00,68.0,52.0,29.88,WSW,240,5.0,-999.0,57,-99.99,,,-99.99,,2013-09-30 20:53:00,
2013-09-30 17:11:00,67.0,52.0,29.87,SSW,205,5.0,-999.0,58,-99.99,,,-99.99,,2013-09-30 21:11:00,
2013-09-30 17:23:00,68.0,52.0,29.87,SW,215,4.0,-999.0,56,-99.99,,,-99.99,,2013-09-30 21:23:00,
2013-09-30 17:54:00,68.0,51.0,29.86,South,169,4.0,-999.0,54,-99.99,,,-99.99,,2013-09-30 21:54:00,
2013-09-30 18:24:00,68.0,54.0,29.86,SE,142,0.0,-999.0,62,-99.99,,,-99.99,,2013-09-30 22:24:00,
2013-09-30 18:44:00,67.0,56.0,29.86,SE,142,0.0,-999.0,67,-99.99,,,-99.99,,2013-09-30 22:44:00,
2013-09-30 18:54:00,66.0,56.0,29.87,SE,133,0.0,-999.0,70,-99.99,,,-99.99,,2013-09-30 22:54:00,
2013-09-30 19:12:00,65.0,56.0,29.87,ESE,111,0.0,-999.0,72,-99.99,,,-99.99,,2013-09-30 23:12:00,
2013-09-30 19:23:00,64.0,55.0,29.87,ESE,121,0.0,-999.0,73,-99.99,,,-99.99,,2013-09-30 23:23:00,
2013-09-30 19:43:00,64.0,57.0,29.87,ESE,121,0.0,-999.0,78,-99.99,,,-99.99,,2013-09-30 23:43:00,
2013-09-30 19:54:00,63.0,56.0,29.87,ESE,121,0.0,-999.0,79,-99.99,,,-99.99,,2013-09-30 23:54:00,
2013-09-30 20:12:00,62.0,56.0,29.86,ESE,121,0.0,-999.0,82,-99.99,,,-99.99,,2013-10-01 00:12:00,
2013-09-30 20:23:00,61.0,56.0,29.86,ESE,121,0.0,-999.0,84,-99.99,,,-99.99,,2013-10-01 00:23:00,
2013-09-30 20:43:00,60.0,55.0,29.86,ESE,121,0.0,-999.0,85,-99.99,,,-99.99,,2013-10-01 00:43:00,
2013-09-30 20:52:00,59.0,55.0,29.87,ESE,121,0.0,-999.0,86,-99.99,,,-99.99,,2013-10-01 00:52:00,
2013-09-30 21:12:00,58.0,55.0,29.88,ESE,121,0.0,-999.0,89,-99.99,,,-99.99,,2013-10-01 01:12:00,
2013-09-30 21:22:00,57.0,54.0,29.88,ESE,121,0.0,-999.0,90,-99.99,,,-99.99,,2013-10-01 01:22:00,
2013-09-30 21:42:00,57.0,54.0,29.88,ESE,121,0.0,-999.0,91,-99.99,,,-99.99,,2013-10-01 01:42:00,
2013-09-30 21:52:00,56.0,54.0,29.88,ESE,121,0.0,-999.0,92,-99.99,,,-99.99,,2013-10-01 01:52:00,
2013-09-30 22:12:00,56.0,54.0,29.88,ESE,121,0.0,-999.0,92,-99.99,,,-99.99,,2013-10-01 02:12:00,
2013-09-30 22:22:00,55.0,53.0,29.88,ESE,121,0.0,-999.0,93,-99.99,,,-99.99,,2013-10-01 02:22:00,
2013-09-30 22:43:00,55.0,53.0,29.88,ESE,121,0.0,-999.0,94,-99.99,,,-99.99,,2013-10-01 02:43:00,
2013-09-30 22:52:00,54.0,52.0,29.88,ESE,121,0.0,-999.0,94,-99.99,,,-99.99,,2013-10-01 02:52:00,
2013-09-30 23:22:00,54.0,52.0,29.88,ESE,121,0.0,-999.0,94,-99.99,,,-99.99,,2013-10-01 03:22:00,
2013-09-30 23:55:00,53.0,52.0,29.88,ESE,121,0.0,-999.0,95,-99.99,,,-99.99,,2013-10-01 03:55:00,